Location: Kawakawa
(35.3830°S, 174.0670°E)
Time: 23:21:17
(UTC+13:00)

Cosmos 1666 Rocket - Pass Details

Date: 24 January 2019
Orbit: 605 x 632 km, 82.5° (Epoch: 15 October)

Event Time Altitude Azimuth Distance (km) Brightness Sun altitude
Rises 21:01:52 0° 179° (S) 2,959 7.4 -5.3°
Reaches altitude 10° 21:04:15 10° 171° (S) 2,039 6.5 -5.7°
Maximum altitude 21:08:32 41° 101° (E) 925 4.1 -6.5°
Drops below altitude 10° 21:12:43 10° 30° (NNE) 1,998 5.7 -7.2°
Enters shadow 21:14:07 - 24° (NNE) 2,533 6.2 -7.4°
